STARLINK-4387 (53490 NORAD) Tracking and Keplerian Element Data

This shows tracking and keplerian element data for the satellite.

Feedback or suggestion? Click here.




ElementValue
Catalog53490
NameSTARLINK-4387
Epoch Orbit1549
Epoch Day325.08603545
Epoch Year2022
RAAN84.1504
Inclination97.6574
Eccentricity0.0003204
Argument of Perigee14.4665
Mean Anonmoly345.665
Mean Motion15.01242069
Decay Rate3.3E-05
L11 53490U 22099AB 22325.08603545 .00003300 00000+0 26150-3 0 9990
L22 53490 97.6574 84.1504 0003204 14.4665 345.6650 15.01242069 15496



Live tracking and technical data element details for STARLINK-4387 (NORAD 53490). STARLINK-4387 can be tracked NOW for your location showing map with azimuth and elevation plus other details from your city location.







IsCatalogInMostPopularTable: catalog: 53490, numindb: 8
Update: records affected: 1



GetName: 53490 STARLINK-4387

Hit Count: updated at: Tue, 29 Nov 2022 01:03:00 GMT